Location: *
(37.5724°S, 58.0067°E)
Time: 10:48:46
(UTC+00:00)

USA 229 DEB - Pass Details

Date: 02 December 2021
Orbit: 943 x 1269 km, 63.4° (Epoch: 14 January)

Event Time Altitude Azimuth Distance (km) Brightness Sun altitude
Rises 16:34:56 0° 345° (NNW) 4,212 6.5 -13.7°
Reaches altitude 10° 16:37:49 10° 350° (N) 3,241 5.9 -14.1°
Maximum altitude 16:45:26 54° 64° (ENE) 1,465 4.1 -15.2°
Drops below altitude 10° 16:52:44 10° 139° (SE) 3,114 6.2 -16.2°
Sets 16:55:27 0° 142° (SE) 4,037 6.8 -16.6°
